Location: Newark
(31.5000°N, 18.0000°E)
Time: 19:06:57
(UTC+00:00)

X-37B - Visible Passes

Search period start: 27 September 2020 00:00
Search period end: 07 October 2020 00:00
Orbit: 386 x 387 km, 45.0° (Epoch: 18 September)

Date Brightness Start Highest point End Pass type
(mag) Time Alt. Az. Time Alt. Az. Time Alt. Az.
27 Sep 3.1 02:46:37 18° SE 02:46:37 18° SE 02:47:35 10° SE visible
28 Sep 3.1 03:24:03 11° S 03:24:03 11° S 03:24:20 10° S visible
28 Sep 3.4 18:14:58 10° SSW 18:15:07 11° SSW 18:15:07 11° SSW visible
29 Sep 2.6 17:17:38 10° S 17:19:24 14° SE 17:20:04 13° ESE visible
30 Sep 0.4 17:54:01 10° SW 17:57:10 73° SE 17:57:11 73° SE visible
01 Oct 1.6 16:55:51 10° SSW 16:58:40 30° SE 17:01:31 10° ENE visible
01 Oct 3.2 18:32:34 10° W 18:34:08 21° WNW 18:34:08 21° WNW visible
02 Oct 1.4 17:33:32 10° WSW 17:36:37 49° NNW 17:38:37 19° NE visible
03 Oct 3.1 18:12:50 10° WNW 18:14:55 16° NNW 18:15:15 16° NNW visible
04 Oct 2.5 17:13:26 10° W 17:16:09 26° NNW 17:18:53 10° NNE visible
05 Oct 3.4 17:53:35 10° NW 17:54:39 11° NNW 17:55:43 10° N visible
06 Oct 3.1 16:53:42 10° WNW 16:55:48 16° NNW 16:57:54 10° NNE visible
